Regional Weather Roundup
Issued by NWS

Home | Current Version | Previous Version | Graphics & Text | Print | Product List | Glossary On
Versions: 1 2 3 4 5 6 7 8 9 10 11 12 13 14 15 16 17 18 19 20 21 22 23 24 25 26 27 28 29 30 31 32 33 34 35 36 37 38 39 40 41 42 43 44 45 46 47 48 49 50
519
ASUS43 KLMK 281902
RWRKY
KENTUCKY REGIONAL WEATHER ROUNDUP
NATIONAL WEATHER SERVICE LOUISVILLE KY
300 PM EDT SUN MAY 28 2017

NOTE "FAIR" INDICATES FEW OR NO CLOUDS BELOW 12,000 FEET
WITH NO SIGNIFICANT WEATHER AND/OR OBSTRUCTIONS TO VISIBILITY.

KYZ001>023-026-027-061>063-070>075-282000-
WESTERN AND SOUTH CENTRAL KENTUCKY

CITY           SKY/WX    TMP DP  RH WIND       PRES   REMARKS
PADUCAH        CLOUDY    72  62  71 W13       29.87S
HENDERSON      CLOUDY    74  64  71 W17       29.84S
OWENSBORO      CLOUDY    71  64  78 W16       29.85R
HOPKINSVILLE   PTSUNNY   76  63  65 W17       29.88R
BOWLING GREEN  MOSUNNY   79  65  62 W13       29.87F
GLASGOW        NOT AVBL
$$

KYZ024-025-028>034-038-045-046-053-282000-
NORTH CENTRAL KENTUCKY

CITY           SKY/WX    TMP DP  RH WIND       PRES   REMARKS
LOUISVILLE/SDF CLOUDY    74  62  66 SW15      29.82S
LOUISVILLE/LOU PTSUNNY   74  63  68 SW12      29.82S
FORT KNOX      PTSUNNY   72  62  71 SW10G21   29.82S
$$

KYZ035>037-039>044-047>052-055>060-089>105-282000-
NORTHEAST KENTUCKY

CITY           SKY/WX    TMP DP  RH WIND       PRES   REMARKS
LEXINGTON      CLOUDY    77  61  57 SW15G23   29.83S
COVINGTON      CLOUDY    73  62  68 W10       29.80S
FRANKFORT      CLOUDY    76  61  59 W13G18    29.81S
$$

KYZ054-064>069-076>088-106>120-282000-
SOUTHEAST KENTUCKY

CITY           SKY/WX    TMP DP  RH WIND       PRES   REMARKS
JACKSON        CLOUDY    69  62  78 CALM      29.87F
LONDON         PTSUNNY   74  61  63 SW12      29.88F
SOMERSET       NOT AVBL
MIDDLESBORO    CLOUDY    76  61  59 SW8       29.89F
MONTICELLO     CLOUDY    73  62  68 W17G23    29.92R
$$





USA.gov is the U.S. government's official web portal to all federal, state and local government web resources and services.